"2010-05-17 00:00:00",118540,0.941,77.7,6.364,0.052,12.71,105.5219,13.41,14.28,39.74,0,110.7,13.26,14.21,39.7
"2010-05-17 00:00:30",118541,0.803,71.44,7.61,0.119,12.76,105.5365,13.45,14.29,39.93,0,110.7,13.26,14.24,33.4
"2010-05-17 00:01:00",118542,0.998,77.26,6.227,0.115,12.79,105.5368,13.45,14.3,41.81,0,110.7,13.26,14.25,39.3
"2010-05-17 00:01:30",118543,1.321,76.6,5.232,0.123,12.84,105.5335,13.44,14.3,42.53,0,110.7,13.26,14.24,38.6
"2010-05-17 00:02:00",118544,0.883,88.3,10.72,0.109,12.87,105.5288,13.43,14.31,42.74,0,110.7,13.26,14.23,50.3
"2010-05-17 00:02:30",118545,1.375,101.4,6.399,0.278,12.82,105.5265,13.42,14.3,41.57,0,110.7,13.26,14.22,63.4
"2010-05-17 00:03:00",118546,1.435,103.3,7.532,0.228,12.85,105.5265,13.42,14.29,41.24,0,110.7,13.26,14.22,65.3
"2010-05-17 00:03:30",118547,1.507,111.5,6.771,0.256,12.75,105.5254,13.42,14.29,41.34,0,110.7,13.26,14.22,73.5
"2010-05-17 00:04:00",118548,1.642,114.8,8.61,0.286,12.87,105.5255,13.42,14.28,40.86,0,110.7,13.26,14.22,76.8
"2010-05-17 00:04:30",118549,1.547,113.1,4.856,0.32,12.88,105.519,13.4,14.27,40.72,0,110.7,13.26,14.20,75.1
"2010-05-17 00:05:00",118550,1.136,100.5,6.539,0.147,12.95,105.511,13.38,14.28,40.57,0,110.7,13.26,14.18,62.5
"2010-05-17 00:05:30",118551,1.245,104,6.386,0.15,12.89,105.5083,13.37,14.28,40.73,0,110.7,13.26,14.17,66.0
"2010-05-17 00:06:00",118552,1.151,124.9,7.509,0.125,12.91,105.5042,13.36,14.28,41.28,0,110.7,13.25,14.16,86.9
"2010-05-17 00:06:30",118553,0.797,127.4,7.054,0.115,12.87,105.5046,13.36,14.29,40.39,0,110.7,13.25,14.16,89.4
"2010-05-17 00:07:00",118554,0.569,131.9,10.85,0.125,12.89,105.5318,13.43,14.29,41.21,0,110.7,13.25,14.23,93.9
"2010-05-17 00:07:30",118555,0.677,121.8,12.49,0.128,12.86,105.5349,13.44,14.33,41.04,0,110.7,13.25,14.24,83.8
"2010-05-17 00:08:00",118556,0.572,87.2,12.83,0.205,12.84,105.5383,13.45,14.34,40.76,0,110.7,13.25,14.25,49.2
"2010-05-17 00:08:30",118557,0.678,87,3.765,0.065,12.81,105.5389,13.45,14.36,40.03,0,110.7,13.25,14.25,49.0
"2010-05-17 00:09:00",118558,0.64,90.8,12.58,0.057,12.89,105.54,13.45,14.37,39.95,0,110.7,13.25,14.25,52.8
"2010-05-17 00:09:30",118559,0.641,103.2,5.906,0.056,12.86,105.5389,13.45,14.36,39.94,0,110.7,13.24,14.25,65.2
"2010-05-17 00:10:00",118560,0.522,103.4,14.78,0.113,12.73,105.5479,13.47,14.38,39.6,0,110.7,13.25,14.27,65.4
"2010-05-17 00:10:30",118561,0.344,92.5,13.05,0.075,12.71,105.5586,13.5,14.37,39.88,0,110.7,13.24,14.30,54.5
"2010-05-17 00:11:00",118562,0.458,103.2,11.05,0.076,12.62,105.5639,13.52,14.39,39.79,0,110.7,13.24,14.32,65.2
"2010-05-17 00:11:30",118563,0.533,69.01,8.37,0.072,12.74,105.5687,13.53,14.38,39.99,0,110.7,13.24,14.33,31.0
"2010-05-17 00:12:00",118564,0.689,86.4,8.92,0.104,12.61,105.569,13.53,14.39,39.71,0,110.8,13.24,14.33,48.4
"2010-05-17 00:12:30",118565,0.564,81.4,14.78,0.108,12.74,105.5864,13.57,14.41,39.78,0,110.8,13.24,14.37,43.4
"2010-05-17 00:13:00",118566,0.527,82.9,9.36,0.088,12.65,105.6024,13.61,14.43,39.29,0,110.8,13.24,14.41,44.9
"2010-05-17 00:13:30",118567,0.576,75.64,6.089,0.128,12.75,105.6027,13.62,14.44,39.12,0,110.8,13.23,14.41,37.6
"2010-05-17 00:14:00",118568,0.68,76.07,5.575,0.124,12.84,105.6035,13.62,14.46,39.14,0,110.7,13.23,14.42,38.1
"2010-05-17 00:14:30",118569,0.704,57.81,13.28,0.169,12.83,105.5992,13.61,14.48,40.35,0,110.8,13.23,14.41,19.8
"2010-05-17 00:15:00",118570,0.425,82.9,23.35,0.207,12.83,105.5935,13.59,14.47,41.08,0,110.8,13.23,14.39,44.9
"2010-05-17 00:15:30",118571,1.013,141,10.07,0.422,12.68,105.5854,13.57,14.46,41.93,0,110.8,13.23,14.37,103.0
"2010-05-17 00:16:00",118572,0.7,139.1,9.65,0.259,12.78,105.5555,13.49,14.45,42.14,0,110.8,13.23,14.29,101.1
"2010-05-17 00:16:30",118573,0.84,107.8,8.43,0.181,12.85,105.5446,13.47,14.43,42.24,0,110.8,13.24,14.27,69.8
"2010-05-17 00:17:00",118574,1.86,103.9,4.092,0.282,12.76,105.5443,13.47,14.41,42.13,0,110.8,13.24,14.26,65.9
"2010-05-17 00:17:30",118575,2.05,115.7,4.67,0.133,12.84,105.5426,13.46,14.38,42.16,0,110.8,13.24,14.26,77.7
"2010-05-17 00:18:00",118576,1.752,106,11.03,0.144,12.92,105.5384,13.45,14.36,42.3,0,110.8,13.24,14.25,68.0
"2010-05-17 00:18:30",118577,1.591,104.9,3.97,0.161,12.96,105.5348,13.44,14.36,41.96,0,110.8,13.24,14.24,66.9
"2010-05-17 00:19:00",118578,1.569,113.9,4.977,0.107,13.02,105.5214,13.41,14.34,41.39,0,110.8,13.24,14.21,75.9
"2010-05-17 00:19:30",118579,1.555,126.6,5.604,0.123,12.92,105.5233,13.41,14.34,40.48,0,110.8,13.23,14.21,88.6
"2010-05-17 00:20:00",118580,1.494,125.7,2.828,0.16,13.08,105.53,13.43,14.33,39.64,0,110.8,13.24,14.23,87.7
"2010-05-17 00:20:30",118581,1.604,135.3,6.523,0.252,13.11,105.5348,13.44,14.31,39.94,0,110.8,13.24,14.24,97.3
"2010-05-17 00:21:00",118582,1.671,137.3,6.778,0.144,13.05,105.5348,13.44,14.34,40.08,0,110.8,13.24,14.24,99.3
"2010-05-17 00:21:30",118583,1.442,131,1.324,0.071,13.13,105.534,13.44,14.33,39.88,0,110.8,13.23,14.24,93.0
"2010-05-17 00:22:00",118584,1.308,134.5,7.514,0.132,13.18,105.534,13.44,14.33,40.75,0,110.8,13.23,14.24,96.5
"2010-05-17 00:22:30",118585,1.51,141,5.043,0.171,13.07,105.5342,13.44,14.34,40.98,0,110.8,13.23,14.24,103.0
"2010-05-17 00:23:00",118586,2.055,125.4,5.365,0.269,13.19,105.5334,13.44,14.34,41.67,0,110.8,13.23,14.24,87.4
"2010-05-17 00:23:30",118587,1.882,118.2,5.082,0.211,13.31,105.5337,13.44,14.33,41.15,0,110.8,13.23,14.24,80.2
"2010-05-17 00:24:00",118588,1.594,109.7,5.363,0.12,13.32,105.5328,13.44,14.33,42.6,0,110.8,13.23,14.24,71.7
"2010-05-17 00:24:30",118589,1.656,116,9.99,0.115,13.24,105.5314,13.43,14.31,43.07,0,110.8,13.23,14.23,78.0
"2010-05-17 00:25:00",118590,1.471,126.6,7.238,0.102,13.16,105.51,13.38,14.32,42.21,0,110.8,13.23,14.18,88.6
"2010-05-17 00:25:30",118591,1.602,132.3,7.35,0.113,13.24,105.4999,13.35,14.31,42.77,0,110.8,13.23,14.15,94.3
"2010-05-17 00:26:00",118592,1.39,133,4.701,0.225,13.27,105.4993,13.35,14.3,42.94,0,110.8,13.23,14.15,95.0
"2010-05-17 00:26:30",118593,0.982,131.2,6.816,0.19,13.17,105.4993,13.35,14.29,42.92,0,110.8,13.23,14.15,93.2
"2010-05-17 00:27:00",118594,1.237,109,8.25,0.382,13.32,105.4993,13.35,14.29,42.68,0,110.8,13.23,14.15,71.0
"2010-05-17 00:27:30",118595,1.052,131.3,7.85,0.253,13.2,105.4993,13.35,14.28,43.11,0,110.8,13.22,14.15,93.3
"2010-05-17 00:28:00",118596,1.116,122.2,9.13,0.132,13.23,105.4993,13.35,14.28,42.52,0,110.8,13.22,14.15,84.2
"2010-05-17 00:28:30",118597,0.704,106.1,10.36,0.265,13.38,105.4993,13.35,14.26,42.66,0,110.8,13.22,14.15,68.1
"2010-05-17 00:29:00",118598,0.934,122.1,4.599,0.206,13.23,105.4993,13.35,14.28,42.36,0,110.8,13.22,14.15,84.1
"2010-05-17 00:29:30",118599,1.251,130.4,4.432,0.345,13.11,105.4993,13.35,14.27,41.88,0,110.8,13.22,14.15,92.4
"2010-05-17 00:30:00",118600,1.233,133,6.365,0.095,13.26,105.4999,13.35,14.27,41.52,0,110.8,13.22,14.15,95.0
"2010-05-17 00:30:30",118601,1.773,154.1,8.3,0.263,13.2,105.5047,13.36,14.27,41.77,0,110.8,13.22,14.16,116.1
"2010-05-17 00:31:00",118602,1.636,147.5,8.42,0.12,13.24,105.5075,13.37,14.27,41.75,0,110.8,13.22,14.17,109.5
"2010-05-17 00:31:30",118603,1.244,146.5,12.54,0.249,13.31,105.5063,13.37,14.29,42,0,110.8,13.22,14.17,108.5
"2010-05-17 00:32:00",118604,1.473,138,12.34,0.164,13.22,105.5108,13.38,14.27,41.86,0,110.8,13.22,14.18,100.0
"2010-05-17 00:32:30",118605,1.795,134.1,3.687,0.179,13.24,105.5103,13.38,14.29,41.56,0,110.8,13.22,14.18,96.1
"2010-05-17 00:33:00",118606,1.687,134.7,5.763,0.154,13.31,105.512,13.38,14.28,41.46,0,110.8,13.22,14.18,96.7
"2010-05-17 00:33:30",118607,1.927,139.8,3.319,0.14,13.3,105.5139,13.39,14.29,42.98,0,110.8,13.22,14.19,101.8
"2010-05-17 00:34:00",118608,1.668,137.6,6.295,0.23,13.3,105.5106,13.38,14.28,43.32,0,110.8,13.22,14.18,99.6
"2010-05-17 00:34:30",118609,1.273,142.5,4.444,0.123,13.35,105.5047,13.36,14.28,42.75,0,110.8,13.22,14.16,104.5
"2010-05-17 00:35:00",118610,1.333,138,5.218,0.097,13.36,105.508,13.37,14.29,41.84,0,110.8,13.23,14.17,100.0
"2010-05-17 00:35:30",118611,1.452,124.8,5.773,0.202,13.35,105.5092,13.38,14.28,41.22,0,110.8,13.23,14.17,86.8
"2010-05-17 00:36:00",118612,1.211,128.8,4.011,0.126,13.34,105.5139,13.39,14.31,41.22,0,110.8,13.23,14.19,90.8
"2010-05-17 00:36:30",118613,1.448,117.6,10.48,0.102,13.44,105.5151,13.39,14.29,40.88,0,110.8,13.23,14.19,79.6
"2010-05-17 00:37:00",118614,1.361,120.4,7.717,0.111,13.32,105.528,13.42,14.28,40.39,0,110.8,13.23,14.22,82.4
"2010-05-17 00:37:30",118615,1.293,97,10.03,0.165,13.38,105.5314,13.43,14.29,40.35,0,110.8,13.23,14.23,59.0
"2010-05-17 00:38:00",118616,1.204,99.4,5.966,0.149,13.33,105.5328,13.44,14.28,40.2,0,110.8,13.23,14.24,61.4
"2010-05-17 00:38:30",118617,1.183,100.7,4.555,0.1,13.27,105.5331,13.44,14.29,40.09,0,110.8,13.23,14.24,62.7
"2010-05-17 00:39:00",118618,1.605,89.6,3.572,0.189,13.33,105.5331,13.44,14.29,40.14,0,110.8,13.23,14.24,51.6
"2010-05-17 00:39:30",118619,1.434,122.7,6.976,0.33,13.32,105.5331,13.44,14.3,40.23,0,110.8,13.22,14.24,84.7
"2010-05-17 00:40:00",118620,1.139,102.6,9.57,0.184,13.36,105.5331,13.44,14.32,40.66,0,110.8,13.23,14.24,64.6
"2010-05-17 00:40:30",118621,1.176,96.4,11.37,0.227,13.31,105.5331,13.44,14.32,41.53,0,110.8,13.23,14.24,58.4
"2010-05-17 00:41:00",118622,1.259,124.5,13.02,0.251,13.33,105.5331,13.44,14.31,42.01,0,110.8,13.23,14.24,86.5
"2010-05-17 00:41:30",118623,1.388,125.1,6.594,0.333,13.28,105.5232,13.41,14.31,43.02,0,110.8,13.23,14.21,87.1
"2010-05-17 00:42:00",118624,0.838,144.2,11.73,0.176,13.25,105.5058,13.37,14.31,43.7,0,110.8,13.23,14.17,106.2
"2010-05-17 00:42:30",118625,0.662,124.1,19.46,0.395,13.24,105.5002,13.35,14.29,44.57,0,110.8,13.23,14.15,86.1
"2010-05-17 00:43:00",118626,1.93,115,5.509,0.391,13.27,105.4996,13.35,14.27,43.37,0,110.8,13.23,14.15,77.0
"2010-05-17 00:43:30",118627,2.28,109.6,5.847,0.269,13.32,105.4993,13.35,14.29,44.78,0,110.8,13.23,14.15,71.6
"2010-05-17 00:44:00",118628,1.898,122.7,4.155,0.111,13.28,105.4993,13.35,14.28,44.55,0,110.8,13.23,14.15,84.7
"2010-05-17 00:44:30",118629,2.157,143.8,7.363,0.289,13.41,105.4993,13.35,14.28,44.67,0,110.8,13.22,14.15,105.8
"2010-05-17 00:45:00",118630,2.806,134.3,6.027,0.23,13.45,105.4993,13.35,14.26,44.14,0,110.8,13.22,14.15,96.3
"2010-05-17 00:45:30",118631,2.785,129.6,2.412,0.176,13.57,105.4979,13.35,14.25,44.35,0,110.8,13.22,14.15,91.6
"2010-05-17 00:46:00",118632,3.006,129.4,3.318,0.431,13.6,105.4926,13.33,14.25,43.92,0,110.8,13.22,14.13,91.4
"2010-05-17 00:46:30",118633,3.465,130.3,1.553,0.122,13.74,105.4861,13.32,14.25,43.82,0,110.8,13.22,14.12,92.3
"2010-05-17 00:47:00",118634,3.273,130.4,1.615,0.315,13.8,105.4804,13.3,14.23,43.4,0,110.8,13.22,14.10,92.4
"2010-05-17 00:47:30",118635,3.111,137.7,4.265,0.174,13.83,105.4747,13.29,14.24,43.97,0,110.8,13.22,14.09,99.7
"2010-05-17 00:48:00",118636,3.111,137.1,3.345,0.252,13.86,105.4765,13.29,14.23,43.5,0,110.8,13.22,14.09,99.1
"2010-05-17 00:48:30",118637,3.261,136.2,1.551,0.143,13.85,105.4746,13.29,14.22,44.13,0,110.8,13.22,14.09,98.2
"2010-05-17 00:49:00",118638,3.161,129.5,7.913,0.174,13.86,105.4733,13.28,14.22,46.05,0,110.8,13.22,14.08,91.5
"2010-05-17 00:49:30",118639,3.22,123,2.49,0.19,13.91,105.4757,13.29,14.23,46.85,0,110.8,13.22,14.09,85.0
"2010-05-17 00:50:00",118640,3.013,140.3,7.203,0.16,13.88,105.4736,13.28,14.22,46.97,0,110.8,13.22,14.08,102.3
"2010-05-17 00:50:30",118641,3.076,136.7,3.385,0.272,13.92,105.471,13.28,14.22,46.93,0,110.8,13.23,14.08,98.7
"2010-05-17 00:51:00",118642,3.536,139.8,4.649,0.148,14.02,105.4603,13.25,14.2,48.25,0,110.7,13.23,14.05,101.8
"2010-05-17 00:51:30",118643,3.78,139.6,5.023,0.162,13.95,105.4569,13.24,14.17,46.8,0,110.8,13.23,14.04,101.6
"2010-05-17 00:52:00",118644,2.767,137.3,6.421,0.686,13.95,105.4582,13.25,14.17,46.15,0,110.8,13.23,14.04,99.3
"2010-05-17 00:52:30",118645,2.456,154.4,5.784,0.24,13.94,105.4618,13.25,14.15,46.28,0,110.8,13.23,14.05,116.4
"2010-05-17 00:53:00",118646,2.957,149.2,3.67,0.287,13.91,105.4659,13.27,14.14,46.26,0,110.7,13.23,14.06,111.2
"2010-05-17 00:53:30",118647,3.158,141,4.646,0.123,13.97,105.4665,13.27,14.15,46.59,0,110.7,13.24,14.06,103.0
"2010-05-17 00:54:00",118648,2.951,143.8,5.387,0.147,13.93,105.4674,13.27,14.14,46.48,0,110.7,13.24,14.07,105.8
"2010-05-17 00:54:30",118649,3.141,135.5,0.983,0.145,13.99,105.4674,13.27,14.13,45.23,0,110.7,13.23,14.07,97.5
"2010-05-17 00:55:00",118650,2.966,129,2.682,0.078,13.96,105.4674,13.27,14.14,44.62,0,110.7,13.24,14.07,91.0
"2010-05-17 00:55:30",118651,2.649,130.8,3.491,0.313,13.96,105.4674,13.27,14.14,44.73,0,110.7,13.24,14.07,92.8
"2010-05-17 00:56:00",118652,2.849,132.6,3.131,0.229,13.94,105.4674,13.27,14.14,44.73,0,110.7,13.24,14.07,94.6
"2010-05-17 00:56:30",118653,3.085,127.1,8.21,0.232,13.96,105.4674,13.27,14.13,44.55,0,110.7,13.24,14.07,89.1
"2010-05-17 00:57:00",118654,2.879,119.4,3.955,0.334,13.96,105.4674,13.27,14.13,44.51,0,110.7,13.24,14.07,81.4
"2010-05-17 00:57:30",118655,2.89,132.4,1.848,0.124,13.97,105.4674,13.27,14.13,44.06,0,110.7,13.24,14.07,94.4
"2010-05-17 00:58:00",118656,2.769,129.6,3.824,0.133,13.97,105.4674,13.27,14.14,43.92,0,110.7,13.24,14.07,91.6
"2010-05-17 00:58:30",118657,3.433,127.3,3.319,0.166,13.98,105.4674,13.27,14.14,45.37,0,110.7,13.24,14.07,89.3
"2010-05-17 00:59:00",118658,3.581,125.9,2.804,0.185,13.96,105.4674,13.27,14.16,47.58,0,110.7,13.24,14.07,87.9
"2010-05-17 00:59:30",118659,3.758,125.8,3.248,0.183,14,105.4657,13.26,14.15,46.89,0,110.7,13.24,14.06,87.8
"2010-05-17 01:00:00",118660,3.89,124.9,3.303,0.128,13.99,105.4486,13.22,14.13,46.02,0,110.7,13.24,14.02,86.9
"2010-05-17 01:00:30",118661,3.781,130.2,2.288,0.119,13.98,105.4376,13.19,14.13,46.39,0,110.7,13.24,13.99,92.2
"2010-05-17 01:01:00",118662,3.673,119.8,3.208,0.129,14.06,105.4337,13.18,14.12,46.39,0,110.7,13.24,13.98,81.8
"2010-05-17 01:01:30",118663,4.085,124.1,4.23,0.689,14.79,105.4337,13.18,14.25,46.19,0,110.7,13.2,13.98,86.1
"2010-05-17 01:02:00",118664,4.473,124.5,7.911,1.143,15.35,105.4337,13.18,14.19,45.52,0,110.7,13.2,13.98,86.5
"2010-05-17 01:02:30",118665,5.007,122.7,6.605,1.188,15.67,105.4349,13.19,14.2,44.92,0,110.7,13.2,13.98,84.7
"2010-05-17 01:03:00",118666,4.274,120.8,2.361,0.179,13.7,105.4378,13.19,14.11,44.91,0,110.7,13.23,13.99,82.8
"2010-05-17 01:03:30",118667,4.031,124.6,1.132,0.299,13.68,105.4455,13.21,14.11,44.84,0,110.7,13.23,14.01,86.6
"2010-05-17 01:04:00",118668,3.898,127.3,2.377,0.317,13.7,105.455,13.24,14.12,44.55,0,110.7,13.23,14.04,89.3
"2010-05-17 01:04:30",118669,4.057,125.1,2.692,0.192,13.71,105.4589,13.25,14.12,45.69,0,110.7,13.23,14.05,87.1
"2010-05-17 01:05:00",118670,3.785,125.7,2.296,0.13,13.79,105.4607,13.25,14.13,46.56,0,110.7,13.24,14.05,87.7
"2010-05-17 01:05:30",118671,4.096,130.4,1.626,0.198,13.8,105.461,13.25,14.12,46.23,0,110.7,13.24,14.05,92.4
"2010-05-17 01:06:00",118672,4.227,132.7,1.56,0.193,13.91,105.4593,13.25,14.11,45.58,0,110.7,13.24,14.05,94.7
"2010-05-17 01:06:30",118673,4.259,133.7,1.168,0.107,13.99,105.4623,13.26,14.1,45.4,0,110.6,13.24,14.05,95.7
"2010-05-17 01:07:00",118674,4.014,136,4.62,0.23,14.46,105.4635,13.26,14.25,45.68,0,110.7,13.24,14.06,98.0
"2010-05-17 01:07:30",118675,4.911,142.6,7.795,1.336,15.9,105.4608,13.25,14.14,46,0,110.6,13.2,14.05,104.6
"2010-05-17 01:08:00",118676,4.08,134.7,1.119,0.135,13.63,105.4501,13.22,14.1,46.3,0,110.6,13.24,14.02,96.7
"2010-05-17 01:08:30",118677,4.082,130.5,4.418,0.222,13.41,105.4386,13.2,14.09,45.4,0,110.6,13.24,13.99,92.5
"2010-05-17 01:09:00",118678,3.925,127.8,2.549,0.133,13.49,105.4437,13.21,14.09,43.58,0,110.6,13.24,14.01,89.8
"2010-05-17 01:09:30",118679,3.119,122.5,2.976,0.262,13.62,105.4603,13.25,14.1,42.42,0,110.6,13.24,14.05,84.5
"2010-05-17 01:10:00",118680,2.896,124.1,2.116,0.168,13.76,105.4693,13.27,14.11,41.83,0,110.6,13.25,14.07,86.1
"2010-05-17 01:10:30",118681,3.142,128.8,2.012,0.17,13.64,105.4693,13.27,14.14,42.91,0,110.6,13.25,14.07,90.8
"2010-05-17 01:11:00",118682,3.383,135.6,2.282,0.153,13.68,105.4693,13.27,14.13,44.46,0,110.6,13.25,14.07,97.6
"2010-05-17 01:11:30",118683,3.26,132.2,4.826,0.197,13.82,105.4693,13.27,14.14,44.62,0,110.6,13.25,14.07,94.2
"2010-05-17 01:12:00",118684,3.315,132.2,2.561,0.191,13.92,105.4693,13.27,14.15,45.01,0,110.6,13.25,14.07,94.2
"2010-05-17 01:12:30",118685,3.612,138.8,3.201,0.339,14,105.4684,13.27,14.14,44.83,0,110.6,13.25,14.07,100.8
"2010-05-17 01:13:00",118686,4.82,147.2,6.08,1.399,15.91,105.4634,13.26,14.2,45.18,0,110.6,13.21,14.06,109.2
"2010-05-17 01:13:30",118687,4.727,143.2,5.858,1.358,16.08,105.46,13.25,14.29,45.67,0,110.6,13.21,14.05,105.2
"2010-05-17 01:14:00",118688,3.805,136.4,1.836,0.533,13.71,105.4415,13.2,14.14,45.42,0,110.6,13.25,14.00,98.4
"2010-05-17 01:14:30",118689,4.386,138.9,1.589,0.119,13.72,105.4376,13.19,14.12,44.99,0,110.6,13.25,13.99,100.9
"2010-05-17 01:15:00",118690,4.026,139.3,2.106,0.166,13.61,105.4364,13.19,14.11,45.03,0,110.6,13.25,13.99,101.3
"2010-05-17 01:15:30",118691,4.122,137.7,1.728,0.072,13.62,105.4403,13.2,14.11,45.2,0,110.6,13.25,14.00,99.7
"2010-05-17 01:16:00",118692,4.131,134,1.573,0.204,13.78,105.442,13.2,14.1,45.65,0,110.6,13.25,14.00,96.0
"2010-05-17 01:16:30",118693,5.1,139.1,5.838,1.225,15.82,105.436,13.19,14.28,45.96,0,110.6,13.21,13.99,101.1
"2010-05-17 01:17:00",118694,4.506,134.5,4.347,0.978,14.26,105.4164,13.14,14.19,46.23,0,110.6,13.21,13.94,96.5
"2010-05-17 01:17:30",118695,4.293,135.2,1.182,0.082,13.46,105.4162,13.14,14.1,46.04,0,110.6,13.25,13.94,97.2
"2010-05-17 01:18:00",118696,4.412,134.4,0.748,0.167,13.28,105.4181,13.14,14.07,45.93,0,110.6,13.25,13.94,96.4
"2010-05-17 01:18:30",118697,4.889,134.3,2.149,0.218,13.47,105.4255,13.16,14.07,46.51,0,110.6,13.25,13.96,96.3
"2010-05-17 01:19:00",118698,4.749,139,6.182,0.199,13.65,105.4267,13.16,14.06,46.29,0,110.6,13.25,13.96,101.0
"2010-05-17 01:19:30",118699,4.594,141.2,4.272,0.283,13.88,105.4285,13.17,14.05,45.46,0,110.6,13.25,13.97,103.2
"2010-05-17 01:20:00",118700,4.478,145.9,4.435,0.647,14.61,105.4332,13.18,14.19,45.23,0,110.6,13.22,13.98,107.9
"2010-05-17 01:20:30",118701,5.091,149.3,6.799,1.282,15.47,105.4356,13.19,14.1,46.11,0,110.6,13.21,13.99,111.3
"2010-05-17 01:21:00",118702,5.122,148.2,5.909,1.259,15.07,105.437,13.19,14.06,45.84,0,110.6,13.21,13.99,110.2
"2010-05-17 01:21:30",118703,5.185,148.4,7.002,1.327,15.57,105.4374,13.19,14.2,47.03,0,110.6,13.21,13.99,110.4
"2010-05-17 01:22:00",118704,4.2,141.5,1.719,0.147,13.22,105.4342,13.18,14.06,47.96,0,110.6,13.25,13.98,103.5
"2010-05-17 01:22:30",118705,4.333,142.5,2.03,0.138,13.13,105.4165,13.14,14.03,48.73,0,110.6,13.25,13.94,104.5
"2010-05-17 01:23:00",118706,4.485,137.6,3.2,0.207,13.18,105.4036,13.11,14.08,48.86,0,110.6,13.25,13.90,99.6
"2010-05-17 01:23:30",118707,6.029,145.3,6.78,1.308,16.47,105.4036,13.11,14.29,49.41,0,110.6,13.21,13.90,107.3
"2010-05-17 01:24:00",118708,5.24,141.7,6.294,1.29,14.58,105.401,13.1,14.17,49.54,0,110.6,13.22,13.90,103.7
"2010-05-17 01:24:30",118709,4.024,143.9,2.298,0.142,12.75,105.3819,13.05,14,48.39,0,110.6,13.25,13.85,105.9
"2010-05-17 01:25:00",118710,3.965,144.9,1.536,0.121,12.51,105.3833,13.05,13.99,47.92,0,110.6,13.25,13.85,106.9
"2010-05-17 01:25:30",118711,3.906,144.8,2.137,0.096,12.67,105.3836,13.05,13.99,47.73,0,110.6,13.26,13.85,106.8
"2010-05-17 01:26:00",118712,3.862,143.6,1.918,0.266,12.83,105.3853,13.06,13.99,47.84,0,110.6,13.26,13.86,105.6
"2010-05-17 01:26:30",118713,5.54,145.3,7.469,1.279,14.93,105.3774,13.04,14.04,48.99,0,110.6,13.22,13.84,107.3
"2010-05-17 01:27:00",118714,5.516,143,9.82,1.258,15.5,105.3701,13.02,14.1,48.58,0,110.6,13.22,13.82,105.0
"2010-05-17 01:27:30",118715,3.935,139.8,2.654,0.166,13.35,105.3704,13.02,13.96,47.06,0,110.6,13.26,13.82,101.8
"2010-05-17 01:28:00",118716,3.983,137.7,4.789,0.148,13.39,105.371,13.02,13.96,47.65,0,110.6,13.26,13.82,99.7
"2010-05-17 01:28:30",118717,5.272,145.5,7.41,1.393,15.43,105.3722,13.03,14.06,48.29,0,110.6,13.23,13.82,107.5
"2010-05-17 01:29:00",118718,4.994,145.8,6.234,1.186,15.44,105.3743,13.03,14.11,48.43,0,110.6,13.23,13.83,107.8
"2010-05-17 01:29:30",118719,3.717,141.8,3.194,0.132,13.27,105.3829,13.05,13.94,48.38,0,110.6,13.26,13.85,103.8
"2010-05-17 01:30:00",118720,3.797,132.2,4.611,0.22,13.21,105.3861,13.06,13.94,48.43,0,110.5,13.27,13.86,94.2
"2010-05-17 01:30:30",118721,3.85,135,1.764,0.099,13.34,105.3906,13.07,14.02,48.22,0,110.5,13.27,13.87,97.0
"2010-05-17 01:31:00",118722,5.298,143.1,6.412,1.247,15.88,105.3898,13.07,14.02,47.6,0,110.5,13.23,13.87,105.1
"2010-05-17 01:31:30",118723,5.506,141.6,5.235,1.343,15.49,105.3916,13.07,14.01,48.68,0,110.5,13.23,13.87,103.6
"2010-05-17 01:32:00",118724,5.063,136.5,5.233,1.207,14.26,105.3783,13.04,14.12,49.47,0,110.5,13.23,13.84,98.5
"2010-05-17 01:32:30",118725,4.581,132.6,6.834,0.804,13.54,105.3711,13.02,14.02,49.37,0,110.5,13.23,13.82,94.6
"2010-05-17 01:33:00",118726,4.833,134.7,6.797,1.278,14.01,105.3672,13.01,13.99,48.73,0,110.5,13.23,13.81,96.7
"2010-05-17 01:33:30",118727,5.324,134.8,6.907,1.309,14.85,105.3701,13.02,14.02,48.74,0,110.5,13.23,13.82,96.8
"2010-05-17 01:34:00",118728,4.629,130.7,1.271,0.136,12.87,105.3707,13.02,13.91,49.42,0,110.5,13.27,13.82,92.7
"2010-05-17 01:34:30",118729,4.755,132.1,3.133,0.593,13.07,105.3716,13.02,13.92,49.39,0,110.5,13.23,13.82,94.1
"2010-05-17 01:35:00",118730,5.665,137.2,7.124,1.457,15.37,105.3716,13.02,14.05,48.96,0,110.5,13.23,13.82,99.2
"2010-05-17 01:35:30",118731,5.272,127.6,1.835,0.18,13.28,105.3716,13.02,13.92,49.49,0,110.5,13.23,13.82,89.6
"2010-05-17 01:36:00",118732,4.657,127.9,5.582,0.248,13.41,105.3713,13.02,13.9,49.19,0,110.5,13.26,13.82,89.9
"2010-05-17 01:36:30",118733,5.612,138.6,7.89,1.361,15.3,105.3696,13.02,13.93,48.47,0,110.5,13.23,13.82,100.6
"2010-05-17 01:37:00",118734,5.732,132.2,6.905,1.466,15.83,105.3713,13.02,14.08,48.32,0,110.5,13.23,13.82,94.2
"2010-05-17 01:37:30",118735,6.132,133.8,6.974,1.281,15.46,105.3711,13.02,14.07,48.74,0,110.5,13.23,13.82,95.8
"2010-05-17 01:38:00",118736,5.868,131.5,6.948,1.129,13.72,105.3685,13.02,13.98,48.98,0,110.5,13.23,13.81,93.5
"2010-05-17 01:38:30",118737,5.5,132.9,3.799,0.911,13.77,105.3646,13.01,14.06,48.81,0,110.5,13.22,13.80,94.9
"2010-05-17 01:39:00",118738,6.431,134.4,4.548,1.136,14.22,105.3634,13,13.89,48.35,0,110.5,13.22,13.80,96.4
"2010-05-17 01:39:30",118739,5.03,133.2,2.761,0.467,12.97,105.366,13.01,13.9,47.87,0,110.5,13.26,13.81,95.2
"2010-05-17 01:40:00",118740,5.68,135.3,10.15,1.325,15,105.3696,13.02,14.01,46.19,0,110.5,13.23,13.82,97.3
"2010-05-17 01:40:30",118741,5.823,134.7,5.417,0.922,13.67,105.3716,13.02,13.94,46.96,0,110.5,13.23,13.82,96.7
"2010-05-17 01:41:00",118742,5.489,133.9,1.558,0.194,13.24,105.3716,13.02,13.91,49.12,0,110.5,13.27,13.82,95.9
"2010-05-17 01:41:30",118743,6.104,131.2,1.403,0.284,13.32,105.3691,13.02,13.96,49.69,0,110.5,13.27,13.81,93.2
"2010-05-17 01:42:00",118744,7.712,136.7,7.215,1.372,15.83,105.3464,12.96,14.01,50.43,0,110.5,13.23,13.76,98.7
"2010-05-17 01:42:30",118745,7.355,134.8,6.362,1.287,14.95,105.3444,12.95,13.99,50.48,0,110.5,13.24,13.75,96.8
"2010-05-17 01:43:00",118746,7.569,137.7,6.795,1.346,15.51,105.3516,12.97,14.13,50.66,0,110.5,13.24,13.77,99.7
"2010-05-17 01:43:30",118747,6.872,129,8.14,1.147,13.87,105.3303,12.92,13.94,50.71,0,110.5,13.24,13.72,91.0
"2010-05-17 01:44:00",118748,8.15,128.3,6.976,1.279,15.63,105.3301,12.92,13.97,50.82,0,110.5,13.24,13.71,90.3
"2010-05-17 01:44:30",118749,7.941,126.6,5.752,1.303,14.68,105.3306,12.92,13.98,51.42,0,110.5,13.24,13.72,88.6
"2010-05-17 01:45:00",118750,7.182,119.5,1.064,0.154,12.61,105.3045,12.85,13.79,52.2,0,110.5,13.28,13.65,81.5
"2010-05-17 01:45:30",118751,7.251,119.2,0.865,0.172,12.74,105.305,12.85,13.77,52.59,0,110.5,13.28,13.65,81.2
"2010-05-17 01:46:00",118752,9.59,120.5,5.353,1.529,15.23,105.2836,12.8,13.93,52.67,0,110.5,13.25,13.60,82.5
"2010-05-17 01:46:30",118753,9.16,118.7,6.788,1.1,14.7,105.272,12.77,13.9,51.87,0,110.5,13.25,13.57,80.7
"2010-05-17 01:47:00",118754,9.81,122.6,6.683,1.384,15.77,105.2619,12.74,13.91,52.01,0,110.5,13.24,13.54,84.6
"2010-05-17 01:47:30",118755,9.23,120,6.525,1.312,14.68,105.2385,12.68,13.9,51.94,0,110.5,13.25,13.48,82.0
"2010-05-17 01:48:00",118756,8.92,119.1,5.621,1.057,13.79,105.2383,12.68,13.82,51.73,0,110.4,13.25,13.48,81.1
"2010-05-17 01:48:30",118757,9.17,122.1,6.591,1.28,14.34,105.2219,12.64,13.67,51.61,0,110.5,13.25,13.44,84.1